Location: Cantaing
(50.1487°N, 3.1675°E)
Time: 22:19:12
(UTC+00:00)

Cosmos 2082 Rocket - Pass Details

Date: 11 April 2026
Orbit: 831 x 853 km, 71.0° (Epoch: 19 May)

Event Time Altitude Azimuth Distance (km) Brightness Sun altitude
Exits shadow 03:39:59 16° 220° (SW) 2,052 3.6 -13.1°
Maximum altitude 03:44:30 69° 302° (WNW) 912 2.3 -12.5°
Drops below altitude 10° 03:50:14 10° 26° (NNE) 2,494 5.5 -11.7°
Sets 03:52:43 0° 29° (NNE) 3,434 6.4 -11.3°
